Location: Fort Wayne
(41.1310°N, 85.1290°W)
Time: 13:10:54
(UTC-04:00)

BREEZE-M DEB (TANK) - Visible Passes

Search period start: 31 October 2014 00:00
Search period end: 09 November 2014 23:00
Orbit: 285 x 13630 km, 49.6° (Epoch: 29 October)

Date Brightness Start Highest point End Pass type
(mag) Time Alt. Az. Time Alt. Az. Time Alt. Az.
31 Oct 4.9 07:33:08 10° WNW 07:38:30 52° N 08:01:03 10° E visible
01 Nov 4.9 04:50:16 28° ENE 04:50:16 28° ENE 04:54:38 10° ENE visible
02 Nov 3.7 05:22:56 38° WNW 05:24:34 52° N 05:38:10 10° ENE visible
04 Nov 4.3 04:12:41 42° NE 04:12:41 42° NE 04:19:33 10° ENE visible
05 Nov 4.3 05:45:12 25° WNW 05:48:15 49° N 06:05:39 10° ENE visible
06 Nov 6.0 03:02:15 13° ENE 03:02:15 13° ENE 03:03:04 10° ENE visible
07 Nov 3.9 04:34:40 48° NNE 04:34:40 48° NNE 04:44:36 10° ENE visible
08 Nov 4.8 06:07:01 17° WNW 06:11:34 52° NNE 06:34:18 10° E visible
09 Nov 5.6 03:23:56 20° ENE 03:23:56 20° ENE 03:26:51 10° ENE visible
